Location: Austin
(30.3000°N, 97.7500°W)
Time: 23:29:34
(UTC-05:00)

USA 234 - Pass Details

Date: 06 May 2026
Orbit: 1102 x 1106 km, 123.0° (Epoch: 4 January)

Event Time Altitude Azimuth Distance (km) Brightness Sun altitude
Rises 22:42:07 0° 44° (NE) 3,920 6.2 -28.3°
Reaches altitude 10° 22:44:38 10° 48° (NE) 2,961 5.5 -28.7°
Enters shadow 22:48:12 35° 60° (ENE) 1,715 4.1 -29.3°
